This demonstration page uses our WeatherBlox Daily Observations layout. Learn more.

Left ArrowRight Arrow

Hourly Observations for March 2, 2021

Temp ( °F °C ) Dew Point ( °F °C ) Humidity (%) Winds ( mph kmh ) Pressure ( in mb ) Visibility ( mi km ) Precip ( " mm )
12:53 am 00:53 Clear 37 2.8 29 -1.7 73 73 WSW 16 26 29.83 1010 10 16 N/A
1:53 am 01:53 Clear 36 2.2 29 -1.7 76 76 WSW 18 30 29.83 1010 10 16 N/A
2:53 am 02:53 Clear 37 2.8 29 -1.7 73 73 SW 22 35 29.82 1010 10 16 N/A
3:53 am 03:53 Clear 36 2.2 29 -1.7 76 76 SW 17 28 29.83 1010 10 16 N/A
4:53 am 04:53 Clear 37 2.8 28 -2.2 70 70 SW 20 31 29.84 1010 10 16 N/A
5:53 am 05:53 Clear 36 2.2 28 -2.2 73 73 SW 18 30 29.86 1011 10 16 N/A
6:53 am 06:53 Clear 38 3.3 27 -2.8 65 65 SW 24 39 29.85 1011 10 16 N/A
7:53 am 07:53 Sunny 38 3.3 27 -2.8 65 65 SW 23 37 29.84 1011 10 16 N/A
8:53 am 08:53 Sunny 40 4.4 29 -1.7 65 65 SW 18 30 29.85 1011 10 16 N/A
9:53 am 09:53 Sunny 43 6.1 30 -1.1 60 60 SW 23 37 29.85 1011 10 16 N/A
10:53 am 10:53 Sunny 46 7.8 32 undefined 58 58 WSW 18 30 29.85 1011 10 16 N/A
11:53 am 11:53 Sunny 48 8.9 32 undefined 54 54 WSW 22 35 29.82 1010 10 16 N/A
12:53 pm 12:53 Sunny 51 10.6 33 0.6 50 50 WSW 23 37 29.78 1009 10 16 N/A
1:53 pm 13:53 Sunny 52 11.1 32 undefined 47 47 WSW 18 30 29.76 1008 10 16 N/A
2:53 pm 14:53 Mostly Sunny 53 11.7 31 -0.6 43 43 W 18 30 29.75 1007 10 16 N/A
3:53 pm 15:53 Mostly Cloudy 51 10.6 29 -1.7 43 43 W 16 26 29.75 1008 10 16 N/A
4:53 pm 16:53 Sunny 48 8.9 30 -1.1 50 50 W 14 22 29.75 1008 10 16 N/A
5:53 pm 17:53 Sunny 45 7.2 27 -2.8 49 49 W 17 28 29.76 1008 10 16 N/A
6:53 pm 18:53 Clear 40 4.4 27 -2.8 60 60 W 16 26 29.78 1008 10 16 N/A
7:53 pm 19:53 Clear 39 3.9 27 -2.8 62 62 W 15 24 29.79 1009 10 16 N/A
8:53 pm 20:53 Clear 34 1.1 27 -2.8 76 76 SW 3 6 29.81 1010 10 16 N/A
9:53 pm 21:53 Clear 37 2.8 27 -2.8 67 67 SW 12 19 29.81 1010 10 16 N/A
10:53 pm 22:53 Clear 37 2.8 27 -2.8 67 67 WSW 3 6 29.81 1009 10 16 N/A
11:53 pm 23:53 Clear 36 2.2 27 -2.8 70 70 W 8 13 29.81 1010 10 16 N/A

Powered by AerisWeather